カタログに戻る

NESS

運用中科学SSO
NORAD 58020·PAYLOAD·🇫🇷 France

打ち上げ Oct 9, 2023 から Guiana Space Centre

Loading…

次のパス (今後24時間)

TLE

最新Source: Space-Track

元期: Sep 14, 2026, 04:38 UTC

1 58020U 23155E   26257.19335703  .00013145  00000-0  41832-3 0  9999
2 58020  97.5876 345.0866 0004609 234.9663 125.1146 15.32711061162111

AllMySatでNESSをリアルタイム追跡

Download on the App Store